FW9562 Weather Reports


Display with metric or nautical units.
time (UTC)temp
F
wind
direction
speed
MPH
gust
MPH
rain 1hr
in
rain 24hr
in
rain mn
in
humidity
%
barometer
mb
20260505022449 61 52 0.0 2.0 0.00 0.00 0.00 58 1015.1
20260505021946 62 61 2.0 2.0 0.00 0.00 0.00 56 1015.0
20260505021443 62 89 0.0 1.0 0.00 0.00 0.00 56 1014.8
20260505020938 62 70 1.0 1.0 0.00 0.00 0.00 55 1015.0
20260505020434 62 44 0.0 2.0 0.00 0.00 0.00 55 1014.9
20260505015931 62 49 0.0 2.0 0.00 0.00 0.00 55 1015.0
20260505015428 62 55 1.0 2.0 0.00 0.00 0.00 56 1014.9
20260505014926 61 67 1.0 2.0 0.00 0.00 0.00 56 1014.9
20260505014422 62 61 1.0 3.0 0.00 0.00 0.00 54 1014.8
20260505013919 62 61 1.0 2.0 0.00 0.00 0.00 55 1014.8
20260505013416 62 58 1.0 2.0 0.00 0.00 0.00 55 1014.6
20260505012914 62 92 1.0 2.0 0.00 0.00 0.00 54 1014.5
20260505012412 62 76 1.0 2.0 0.00 0.00 0.00 54 1014.2
20260505011908 63 70 2.0 2.0 0.00 0.00 0.00 53 1014.4
20260505011405 63 81 1.0 2.0 0.00 0.00 0.00 51 1014.2
20260505010901 63 76 1.0 2.0 0.00 0.00 0.00 51 1014.3
20260505010357 64 86 1.0 2.0 0.00 0.00 0.00 51 1014.2
20260505005853 64 62 1.0 2.0 0.00 0.00 0.00 50 1014.0
20260505005350 64 88 1.0 2.0 0.00 0.00 0.00 48 1014.1
20260505004848 64 54 2.0 2.0 0.00 0.00 0.00 49 1013.9
20260505004344 64 89 0.0 2.0 0.00 0.00 0.00 48 1014.0
20260505003841 64 82 1.0 2.0 0.00 0.00 0.00 48 1014.0
20260505003338 64 81 2.0 3.0 0.00 0.00 0.00 48 1013.8
20260505002834 65 80 2.0 3.0 0.00 0.00 0.00 48 1013.8
20260505002331 66 78 2.0 3.0 0.00 0.00 0.00 49 1013.8
20260505001830 66 82 2.0 3.0 0.00 0.00 0.00 45 1013.7
20260505001326 67 83 2.0 3.0 0.00 0.00 0.00 45 1013.5
20260505000824 67 82 2.0 2.0 0.00 0.00 0.00 43 1013.7
20260505000321 68 82 2.0 2.0 0.00 0.00 0.00 42 1013.4
20260504235818 68 80 2.0 3.0 0.00 0.00 0.00 42 1013.5
20260504235315 68 88 2.0 2.0 0.00 0.00 0.00 42 1013.4
20260504234811 69 63 2.0 2.0 0.00 0.00 0.00 40 1013.4
20260504234309 70 69 1.0 2.0 0.00 0.00 0.00 40 1013.2
20260504233805 70 82 1.0 2.0 0.00 0.00 0.00 39 1013.3
20260504233301 71 66 2.0 2.0 0.00 0.00 0.00 39 1013.2
20260504232758 71 72 0.0 2.0 0.00 0.00 0.00 39 1013.3
20260504232255 72 44 1.0 2.0 0.00 0.00 0.00 38 1013.2
20260504231752 72 67 1.0 2.0 0.00 0.00 0.00 37 1013.2
20260504231248 73 75 2.0 2.0 0.00 0.00 0.00 37 1013.2
20260504230744 74 62 2.0 2.0 0.00 0.00 0.00 36 1013.2
20260504230243 74 62 1.0 2.0 0.00 0.00 0.00 36 1013.0
20260504225741 75 86 1.0 1.0 0.00 0.00 0.00 36 1013.1
20260504225237 76 103 1.0 2.0 0.00 0.00 0.00 34 1013.0
20260504224734 77 67 2.0 2.0 0.00 0.00 0.00 33 1013.0
20260504224232 79 96 0.0 2.0 0.00 0.00 0.00 33 1013.1
20260504223728 80 20 2.0 3.0 0.00 0.00 0.00 31 1013.0
20260504223223 83 322 0.0 3.0 0.00 0.00 0.00 32 1013.2
20260504222721 83 309 2.0 3.0 0.00 0.00 0.00 28 1013.3
20260504222218 83 248 0.0 2.0 0.00 0.00 0.00 31 1013.1
20260504221715 82 66 2.0 2.0 0.00 0.00 0.00 32 1013.2
20260504221212 83 281 2.0 3.0 0.00 0.00 0.00 29 1013.1
20260504220708 84 289 2.0 3.0 0.00 0.00 0.00 28 1013.3
20260504220206 85 135 0.0 3.0 0.00 0.00 0.00 28 1013.1
20260504215702 85 112 1.0 2.0 0.00 0.00 0.00 31 1013.5
20260504215200 84 60 0.0 2.0 0.00 0.00 0.00 33 1013.1
20260504214655 84 55 0.0 2.0 0.00 0.00 0.00 30 1013.4
20260504214152 83 72 0.0 2.0 0.00 0.00 0.00 32 1013.2
20260504213648 83 309 0.0 2.0 0.00 0.00 0.00 32 1013.1
20260504213145 84 315 0.0 2.0 0.00 0.00 0.00 33 1013.3
20260504212642 84 29 2.0 2.0 0.00 0.00 0.00 33 1013.4
20260504212138 83 248 2.0 2.0 0.00 0.00 0.00 31 1013.3
20260504211636 83 122 0.0 3.0 0.00 0.00 0.00 32 1013.5
20260504211132 83 229 0.0 2.0 0.00 0.00 0.00 31 1013.2
20260504210630 82 186 0.0 2.0 0.00 0.00 0.00 33 1013.6
20260504210126 82 243 1.0 3.0 0.00 0.00 0.00 32 1013.4
20260504205624 82 53 0.0 3.0 0.00 0.00 0.00 33 1013.3
20260504205121 82 176 0.0 2.0 0.00 0.00 0.00 32 1013.4
20260504204620 83 308 1.0 3.0 0.00 0.00 0.00 33 1013.3
20260504204118 83 81 0.0 4.0 0.00 0.00 0.00 31 1013.6
20260504203616 84 190 3.0 3.0 0.00 0.00 0.00 33 1013.5
20260504203114 84 242 1.0 5.0 0.00 0.00 0.00 31 1013.5
20260504202609 84 343 2.0 3.0 0.00 0.00 0.00 29 1013.9
20260504202106 83 298 2.0 2.0 0.00 0.00 0.00 33 1013.8
20260504201602 84 269 2.0 3.0 0.00 0.00 0.00 32 1013.8
20260504201100 83 180 0.0 2.0 0.00 0.00 0.00 32 1014.0
20260504200556 81 164 0.0 2.0 0.00 0.00 0.00 31 1014.1
20260504200053 81 288 3.0 6.0 0.00 0.00 0.00 33 1013.8
20260504195549 82 185 0.0 3.0 0.00 0.00 0.00 33 1013.9
20260504195046 82 289 2.0 5.0 0.00 0.00 0.00 30 1014.1
20260504194543 82 121 1.0 2.0 0.00 0.00 0.00 30 1014.1
20260504194038 82 185 1.0 3.0 0.00 0.00 0.00 33 1014.3
20260504193535 82 244 3.0 5.0 0.00 0.00 0.00 33 1014.2
20260504193034 82 332 2.0 3.0 0.00 0.00 0.00 32 1014.2
20260504192532 82 77 3.0 3.0 0.00 0.00 0.00 31 1014.3
20260504192029 83 217 1.0 3.0 0.00 0.00 0.00 30 1014.5
20260504191527 82 242 0.0 4.0 0.00 0.00 0.00 32 1014.3
20260504191023 82 167 0.0 3.0 0.00 0.00 0.00 33 1014.4
20260504190519 82 50 0.0 3.0 0.00 0.00 0.00 30 1014.5
20260504190015 81 218 2.0 2.0 0.00 0.00 0.00 33 1014.8
20260504185513 81 191 0.0 5.0 0.00 0.00 0.00 34 1014.9
20260504185009 81 292 3.0 4.0 0.00 0.00 0.00 32 1014.6
20260504184504 80 202 0.0 3.0 0.00 0.00 0.00 34 1014.8
20260504184000 80 197 0.0 5.0 0.00 0.00 0.00 32 1014.8
20260504183457 81 239 3.0 7.0 0.00 0.00 0.00 32 1015.1
20260504182955 81 43 0.0 3.0 0.00 0.00 0.00 30 1015.0
20260504182452 80 308 0.0 4.0 0.00 0.00 0.00 34 1015.0
20260504181949 79 289 3.0 4.0 0.00 0.00 0.00 36 1015.2
20260504181446 79 287 3.0 5.0 0.00 0.00 0.00 35 1015.3
20260504180945 79 19 4.0 4.0 0.00 0.00 0.00 33 1015.1
20260504180443 78 316 2.0 5.0 0.00 0.00 0.00 33 1015.1
20260504175941 80 2 6.0 8.0 0.00 0.00 0.00 34 1015.1
20260504175438 79 37 0.0 5.0 0.00 0.00 0.00 33 1015.3
20260504174936 79 77 3.0 3.0 0.00 0.00 0.00 34 1015.3
20260504174433 78 305 3.0 5.0 0.00 0.00 0.00 31 1015.4
20260504173930 78 356 1.0 4.0 0.00 0.00 0.00 30 1015.5
20260504173426 79 287 4.0 4.0 0.00 0.00 0.00 34 1015.4
20260504172924 78 239 3.0 3.0 0.00 0.00 0.00 36 1015.5
20260504172420 77 280 1.0 4.0 0.00 0.00 0.00 36 1015.4
20260504171916 76 45 2.0 5.0 0.00 0.00 0.00 40 1015.7
20260504171414 76 0 5.0 6.0 0.00 0.00 0.00 38 1015.8
20260504170911 76 194 0.0 6.0 0.00 0.00 0.00 36 1016.1
20260504170407 75 263 2.0 7.0 0.00 0.00 0.00 38 1016.1
20260504160326 73 114 1.0 7.0 0.00 0.00 0.00 40 1017.1
20260504150751 70 286 0.0 3.0 0.00 0.00 0.00 48 1017.3
20260504150247 70 100 0.0 4.0 0.00 0.00 0.00 50 1017.3
20260504141217 66 329 1.0 3.0 0.00 0.00 0.00 57 1017.4
20260504140714 66 294 4.0 4.0 0.00 0.00 0.00 57 1017.5
20260504140209 66 334 1.0 2.0 0.00 0.00 0.00 61 1017.3
20260504130638 60 339 0.0 2.0 0.00 0.00 0.00 70 1017.5
20260504130134 59 72 1.0 2.0 0.00 0.00 0.00 74 1017.4
20260504110526 42 59 3.0 4.0 0.00 0.00 0.00 99 1017.5
20260504100442 40 77 2.0 3.0 0.00 0.00 0.00 99 1017.2
20260504081835 42 77 3.0 3.0 0.00 0.00 0.00 89 1017.4
20260504081332 42 58 3.0 3.0 0.00 0.00 0.00 89 1017.2
20260504080827 43 65 3.0 3.0 0.00 0.00 0.00 87 1017.2
20260504080325 43 72 3.0 3.0 0.00 0.00 0.00 87 1017.3
20260504070252 43 77 3.0 3.0 0.00 0.00 0.00 83 1017.3
20260504060213 42 65 3.0 3.0 0.00 0.00 0.00 81 1017.4
20260504050640 44 70 3.0 3.0 0.00 0.00 0.00 86 1017.4
20260504050137 44 70 1.0 2.0 0.00 0.00 0.00 84 1017.2
20260504045635 44 52 1.0 2.0 0.00 0.00 0.00 82 1017.4
20260504045134 44 61 2.0 2.0 0.00 0.00 0.00 85 1017.6
20260504044633 43 41 2.0 3.0 0.00 0.00 0.00 86 1017.4
20260504044129 43 63 3.0 3.0 0.00 0.00 0.00 85 1017.5
20260504043626 43 70 3.0 3.0 0.00 0.00 0.00 87 1017.4
20260504043123 44 62 3.0 3.0 0.00 0.00 0.00 87 1017.6
20260504042621 44 45 1.0 3.0 0.00 0.00 0.00 88 1017.6
20260504042117 44 63 2.0 3.0 0.00 0.00 0.00 86 1017.3
20260504041613 44 39 1.0 3.0 0.00 0.00 0.00 85 1017.7
20260504041110 44 64 2.0 3.0 0.00 0.00 0.00 86 1017.6
20260504040607 44 58 2.0 3.0 0.00 0.00 0.00 86 1017.6
20260504040103 44 76 2.0 3.0 0.00 0.00 0.00 87 1017.4
20260504035600 44 61 2.0 3.0 0.00 0.00 0.00 85 1017.7
20260504035056 44 60 2.0 3.0 0.00 0.00 0.00 84 1017.7
20260504034555 44 81 2.0 3.0 0.00 0.00 0.00 82 1017.6
20260504034051 44 89 2.0 2.0 0.00 0.00 0.00 80 1017.7
20260504033549 44 70 2.0 3.0 0.00 0.00 0.00 81 1017.5
20260504033046 44 69 2.0 3.0 0.00 0.00 0.00 79 1017.6
20260504032543 44 63 2.0 3.0 0.00 0.00 0.00 76 1017.5
20260504032040 45 71 3.0 3.0 0.00 0.00 0.00 77 1017.5
20260504031537 45 75 2.0 3.0 0.00 0.00 0.00 76 1017.4
20260504031033 45 70 2.0 3.0 0.00 0.00 0.00 76 1017.4
20260504030531 45 71 2.0 3.0 0.00 0.00 0.00 78 1017.2
20260504030026 45 62 2.0 3.0 0.00 0.00 0.00 80 1017.4
20260504025524 45 72 2.0 3.0 0.00 0.00 0.00 81 1017.3
20260504025020 45 70 3.0 3.0 0.00 0.00 0.00 82 1017.1
20260504024518 46 70 2.0 3.0 0.00 0.00 0.00 76 1017.2
20260504024014 46 73 2.0 3.0 0.00 0.00 0.00 76 1017.2
20260504023511 46 68 2.0 3.0 0.00 0.00 0.00 73 1017.1
20260504023007 45 77 2.0 4.0 0.00 0.00 0.00 71 1017.3
20260504022503 45 75 3.0 3.0 0.00 0.00 0.00 69 1017.0